Location: Cisewo
(53.3833°N, 14.9000°E)
Time: 12:08:19
(UTC+00:00)

ATLAS 2AS CENTAUR R/B - Pass Details

Date: 18 April 2021
Orbit: 949 x 1263 km, 63.7° (Epoch: 07 May)

Event Time Altitude Azimuth Distance (km) Brightness Sun altitude
Rises 21:53:08 0° 271° (W) 4,217 6.1 -23.9°
Reaches altitude 10° 21:56:11 10° 278° (W) 3,238 5.5 -24.1°
Maximum altitude 22:03:32 41° 347° (NNW) 1,702 4.2 -24.4°
Drops below altitude 10° 22:10:34 10° 57° (ENE) 3,090 5.3 -24.6°
Sets 22:13:25 0° 65° (ENE) 4,006 5.9 -24.7°
